Shreveport, LA

4:01 AM CDT on August 24, 2016 (GMT -0500)
Shreveport Regional

Weather History for KSHV - January, 2013

Change the Weather History Date:

Friday, January 25, 2013

  Actual Average Record
Temperature  
Mean Temperature 59 °F 47 °F  
Max Temperature 69 °F 58 °F 85 °F (1950)
Min Temperature 49 °F 37 °F 14 °F (1894)
Degree Days  
Heating Degree Days 6 18  
Month to date heating degree days 429 467  
Since 1 July heating degree days 1182 1369  
Cooling Degree Days 0 0  
Month to date cooling degree days 0 0  
Year to date cooling degree days 0 0  
Growing Degree Days 8 (Base 50)    
Moisture  
Dew Point 53 °F    
Average Humidity 80    
Maximum Humidity 93    
Minimum Humidity 66    
Precipitation  
Precipitation 0.00 in 0.14 in 1.68 in (1932)
Month to date precipitation 4.48 3.29  
Year to date precipitation 4.48 3.29  
Snow  
Snow 0.00 in - - ()
Month to date snowfall 0.1  
Since 1 July snowfall 0.1  
Snow Depth 0.00 in    
Sea Level Pressure  
Sea Level Pressure 30.13 in    
Wind  
Wind Speed 10 mph (NNW)    
Max Wind Speed 18 mph    
Max Gust Speed 24 mph    
Visibility 9 miles    
Events      
T = Trace of Precipitation, MM = Missing Value Source: NWS Daily Summary

Daily Weather History Graph

Daily Weather History Graph

Search for Another Location

Airport or City:

Trip Planner

Search our weather history database for the weather conditions in past years. The results will help you decide how hot, cold, wet, or windy it might be!

Date:

Astronomy

Jan. 25, 2013 Rise Set
Actual Time 7:13 AM CST 5:42 PM CST
Civil Twilight 6:47 AM CST 6:08 PM CST
Nautical Twilight 6:17 AM CST 6:38 PM CST
Astronomical Twilight 5:48 AM CST 7:07 PM CST
Moon 4:39 PM CST (1/25) 5:53 AM CST (1/25)
Length of Visible Light 11h 20m
Length of Day
10h 28m
Waxing Gibbous, 98% of the Moon is Illuminated
Jan 25
Waxing Gibbous
Jan 26
Full
Feb 3
Last Quarter
Feb 10
New
Feb 17
First Quarter

Hourly Weather History & Observations

Time (CST) Temp. Dew Point Humidity Pressure Visibility Wind Dir Wind Speed Gust Speed Precip Events Conditions
12:56 AM 63.0 °F 60.1 °F 90% 30.10 in 10.0 mi South 8.1 mph - N/A   Overcast
1:56 AM 62.1 °F 59.0 °F 90% 30.10 in 10.0 mi South 9.2 mph - N/A   Mostly Cloudy
2:05 AM 62.6 °F 57.2 °F 82% 30.10 in 10.0 mi South 11.5 mph - N/A   Mostly Cloudy
2:56 AM 63.0 °F 57.9 °F 84% 30.11 in 10.0 mi SSW 6.9 mph - N/A   Overcast
3:56 AM 62.1 °F 57.9 °F 86% 30.08 in 10.0 mi South 10.4 mph - N/A   Overcast
4:56 AM 62.1 °F 57.9 °F 86% 30.06 in 10.0 mi South 13.8 mph - N/A   Overcast
5:36 AM 62.6 °F 57.2 °F 82% 30.08 in 10.0 mi SSW 15.0 mph 21.9 mph N/A   Overcast
5:56 AM 63.0 °F 57.9 °F 84% 30.07 in 10.0 mi SSW 10.4 mph 19.6 mph N/A   Overcast
6:56 AM 63.0 °F 57.9 °F 84% 30.08 in 10.0 mi SSW 11.5 mph 21.9 mph N/A   Overcast
7:56 AM 63.0 °F 57.9 °F 84% 30.10 in 10.0 mi SW 11.5 mph - N/A   Overcast
8:56 AM 64.0 °F 59.0 °F 84% 30.13 in 10.0 mi SW 9.2 mph - N/A   Overcast
9:56 AM 64.9 °F 59.0 °F 81% 30.14 in 10.0 mi SSW 13.8 mph 18.4 mph N/A   Overcast
10:56 AM 66.9 °F 59.0 °F 76% 30.15 in 10.0 mi SW 11.5 mph 19.6 mph N/A   Overcast
11:56 AM 69.1 °F 57.9 °F 68% 30.12 in 10.0 mi SSW 10.4 mph 17.3 mph N/A   Overcast
12:56 PM 68.0 °F 57.9 °F 70% 30.10 in 10.0 mi SW 10.4 mph - N/A   Overcast
1:56 PM 66.0 °F 57.0 °F 73% 30.09 in 9.0 mi North 15.0 mph - N/A   Overcast
2:16 PM 55.4 °F 51.8 °F 88% 30.10 in 5.0 mi North 17.3 mph - N/A   Overcast
2:56 PM 55.0 °F 51.1 °F 86% 30.11 in 8.0 mi North 8.1 mph - N/A   Overcast
3:56 PM 54.0 °F 50.0 °F 86% 30.12 in 6.0 mi North 8.1 mph - N/A   Overcast
4:05 PM 53.6 °F 50.0 °F 88% 30.13 in 7.0 mi North 8.1 mph - N/A   Overcast
4:42 PM 53.6 °F 48.2 °F 82% 30.13 in 7.0 mi North 9.2 mph - N/A   Overcast
4:56 PM 52.0 °F 48.9 °F 89% 30.12 in 7.0 mi North 10.4 mph - N/A   Overcast
5:23 PM 51.8 °F 48.2 °F 88% 30.14 in 7.0 mi North 5.8 mph - N/A   Overcast
5:56 PM 51.1 °F 46.9 °F 86% 30.15 in 7.0 mi North 8.1 mph - N/A   Overcast
6:36 PM 51.8 °F 46.4 °F 82% 30.16 in 10.0 mi North 6.9 mph - N/A   Overcast
6:56 PM 51.1 °F 46.9 °F 86% 30.16 in 10.0 mi NNE 9.2 mph - N/A   Overcast
7:17 PM 50.0 °F 46.4 °F 87% 30.16 in 10.0 mi NNE 6.9 mph - N/A   Overcast
7:56 PM 50.0 °F 46.0 °F 86% 30.17 in 10.0 mi NNE 9.2 mph - N/A   Overcast
8:56 PM 50.0 °F 46.0 °F 86% 30.17 in 10.0 mi NNE 8.1 mph - N/A   Overcast
9:56 PM 48.9 °F 45.0 °F 86% 30.18 in 10.0 mi North 10.4 mph - N/A   Overcast
10:56 PM 48.9 °F 45.0 °F 86% 30.19 in 10.0 mi NE 8.1 mph - N/A   Overcast
11:23 PM 48.2 °F 44.6 °F 87% 30.20 in 10.0 mi East 9.2 mph - N/A   Overcast
11:56 PM 48.9 °F 45.0 °F 86% 30.20 in 10.0 mi East 8.1 mph - N/A   Overcast